Regional Weather Roundup
Issued by NWS Goodland, KS

Home | Current Version | Previous Version | Graphics & Text | Print | Product List | Glossary On
Versions: 1 2 3 4 5 6 7 8 9 10 11 12 13 14 15 16 17 18 19 20 21 22 23 24 25 26 27 28 29 30 31 32 33 34 35 36 37 38 39 40 41 42 43 44 45 46 47 48 49 50
000
ASUS43 KGLD 012359
RWRGLD

GOODLAND FORECAST AREA HOURLY WEATHER ROUNDUP
NATIONAL WEATHER SERVICE GOODLAND KS
600 PM MDT WED APR 01 2015

...OFFICIAL OBSERVATIONS...

CITY           SKY/WX    TMP DP  RH WIND       PRES   REMARKS
GOODLAND KS    CLOUDY    77  25  14 N10G21    29.58F
HILL CITY KS   CLOUDY    81  33  17 N16G32    29.51R
IMPERIAL NEB   CLOUDY    71  30  21 N17       29.65R
MCCOOK NEB     MOSUNNY   78  30  17 N21G31    29.54S
AKRON CO       CLOUDY    57  40  52 E16       29.74R
BURLINGTON CO  PTSUNNY   72  25  17 N8        29.63R
LIMON CO       PTSUNNY   64  28  25 NE9       29.70S
$$

...UNOFFICIAL OBSERVATIONS...

CITY           SKY/WX    TMP DP  RH WIND       PRES   REMARKS
COLBY KS       SUNNY     81  37  21 N6        29.56S
GOVE KS          N/A     81  32  17 MISG        N/A
LENORA KS        N/A     80  32  17 MISG        N/A
NORTON KS      MOSUNNY   79  27  14 SE14G26   29.51F
SHARON SPRINGS   N/A     79  24  13 NW9         N/A
KIT CARSON CO    N/A     75  30  19 MISG        N/A
YUMA CO          N/A     62  35  36 NW20G26     N/A
$$


USA.gov is the U.S. government's official web portal to all federal, state and local government web resources and services.